sat.trackr.live / text

‹ back to catalog

STARLINK-33732

NORAD 63575 · 2025-076G

PAYLOAD ACTIVE UNKNOWN

§ Identity

Operator
Country
US
Launch date
2025-04-14
Launch site
AFETR
Launch vehicle
Mass (kg)
RCS (m²)

Purposes: comms

External: N2YO · Heavens-Above · Gunter

§ Orbital elements

Epoch: 2026-09-20T10:37:49.062144Z

Period
94.27 min
Inclination
43.0027°
Eccentricity
0.0001581
Mean motion
15.27583668 rev/d
Perigee alt
482.0 km
Apogee alt
484.1 km
Semi-major
6,861.2 km
B*
3.2866e-4
RAAN
301.9899°
Arg perigee
276.6826°
Mean anomaly
83.3846°
Rev number
8,161

§ Raw data

STARLINK-337321 63575U 25076G   26263.44292896  .00008794  00000+0  32866-3 0  99942 63575  43.0027 301.9899 0001581 276.6826  83.3846 15.27583668 81614

JSON: /api/v1/satellites/63575 · /tle

For live sub-satellite position, see the globe view (requires WebGL).

§ Visibility from observer

Set your observer location to see the next 7 days of passes ≥ 10°. The values pass through the URL so the page stays shareable.

No JS? Fill the form by hand. The geolocation button needs JavaScript.